Regional Weather Roundup
Issued by NWS Upton, NY

Current Version | Previous Version | Graphics & Text | Print | Product List | Glossary Off
Versions: 1 2 3 4 5 6 7 8 9 10 11 12 13 14 15 16 17 18 19 20 21 22 23 24 25 26 27 28 29 30 31 32 33 34 35 36 37 38 39 40 41 42 43 44 45 46 47

000
ASUS41 KOKX 112305
RWROKX

REGIONAL WEATHER ROUNDUP
NATIONAL WEATHER SERVICE NEW YORK NY
700 PM EDT FRI JUL 11 2014

NOTE: "FAIR" INDICATES FEW OR NO CLOUDS BELOW 12,000 FEET WITH NO
SIGNIFICANT WEATHER AND/OR OBSTRUCTIONS TO VISIBILITY.

NYZ071-072-176-178-NJZ106-104-120000-
NEW YORK CITY METRO AREA


CITY           SKY/WX    TMP DP  RH WIND       PRES   REMARKS
CENTRAL PARK   MOSUNNY   77  62  59 CALM      30.21R
LAGUARDIA APRT PTSUNNY   82  62  50 SE10      30.17S
KENNEDY INTL   MOSUNNY   76  66  71 SE9       30.19S
NEWARK/LIBERTY PTSUNNY   78  61  55 SE8       30.18R
BRNX BOT. GARD   N/A    N/A N/A N/A SE7       30.20R
TETERBORO      CLOUDY    82  60  47 S7        30.16R
$$

NYZ177-179-078>081-120000-
LONG ISLAND NEW YORK

CITY           SKY/WX    TMP DP  RH WIND       PRES   REMARKS
FARMINGDALE    MOSUNNY   74  61  63 SE8       30.19S
ISLIP          MOSUNNY   75  62  64 SE9       30.18R
SHIRLEY        SUNNY     74  61  63 S7        30.20S
WESTHAMPTON    SUNNY     73  61  65 SE5       30.21S
MONTAUK POINT    N/A     73  63  70 VRB6      30.20S
$$

NYZ052-065-067-120000-
HUDSON VALLEY

CITY           SKY/WX    TMP DP  RH WIND       PRES   REMARKS
WHITE PLAINS   MOSUNNY   79  59  50 S3        30.18S
NEWBURGH       MOSUNNY   81  59  47 VRB6      30.19S
MONTGOMERY     CLOUDY    81  60  48 S5        30.17S
POUGHKEEPSIE   SUNNY     81  56  42 CALM      30.16S
ALBANY         MOSUNNY   79  52  38 NE5       30.18S
$$

NJZ001-105-106-008-010-013-015-019>022-104-120000-
NEW JERSEY

CITY           SKY/WX    TMP DP  RH WIND       PRES   REMARKS
NEWARK/LIBERTY PTSUNNY   78  61  55 SE8       30.18R
TETERBORO      CLOUDY    82  60  47 S7        30.16R
CALDWELL       CLOUDY    80  61  52 SE7       30.18R
MORRISTOWN     PTSUNNY   81  61  50 S3        30.17S
SOMERVILLE     MOSUNNY   84  60  44 MISG      30.15R
LINDEN         MOCLDY    81  61  50 SE9       30.19R
SUSSEX         CLOUDY    80  66  62 S3        30.19R
ANDOVER          N/A     79  63  57 CALM      30.20R
TRENTON        MOSUNNY   84  56  38 N3        30.16R
MILLVILLE      SUNNY     76  69  79 SE9       30.19R
ATLANTIC CITY  MOSUNNY   76  63  64 E7        30.19R
WRIGHTSTOWN    SUNNY     81  61  50 SE9       30.15R
TOMS RIVER     SUNNY     79  63  57 SE3       30.19R
BELMAR         SUNNY     75  61  60 SE9       30.19R
$$

PAZ047>061-062-071-120000-
EASTERN PENNSYLVANIA

CITY           SKY/WX    TMP DP  RH WIND       PRES   REMARKS
PHILADELPHIA   MOSUNNY   84  61  45 S12       30.16R
ALLENTOWN      MOSUNNY   83  61  47 N7        30.18R
SCRANTON       SUNNY     82  54  37 CALM      30.19S
$$

CTZ002-004>006-009-010-012-RIZ004-006-007-MAZ004-011-015-120000-
SOUTHERN NEW ENGLAND
 IN CT

CITY           SKY/WX    TMP DP  RH WIND       PRES   REMARKS
BRADLEY INTL   MOSUNNY   82  50  32 NW8       30.16S
HARTFORD       SUNNY     82  47  29 NW8       30.15S
DANBURY        SUNNY     80  52  37 N5        30.19S
WTRBRY/OXFORD  NOT AVBL
BRIDGEPORT     SUNNY     80  59  48 S7        30.17S
MERIDEN        SUNNY     80  57  45 S7        30.17S
NEW HAVEN      MOSUNNY   80  65  59 SE6       30.18S
CHESTER        FAIR      75  63  64 SE7       30.20S
GROTON         SUNNY     70  63  78 S3        30.18S
WILLIMANTIC    MOSUNNY   77  60  55 S8        30.18S

 IN RI

CITY           SKY/WX    TMP DP  RH WIND       PRES   REMARKS
PROVIDENCE     PTSUNNY   74  61  63 SE13      30.19R
BLOCK ISLAND   SUNNY     72  61  68 S8        30.20S
WESTERLY       SUNNY     73  61  65 S7        30.19S

 IN MA

CITY           SKY/WX    TMP DP  RH WIND       PRES   REMARKS
BOSTON         MOSUNNY   68  57  68 E9        30.20S
WORCESTER      SUNNY     77  51  40 W3        30.20F
WESTFIELD      SUNNY     81  50  33 W8        30.17
PROVINCETOWN   SUNNY     68  61  77 E8        30.20F
NANTUCKET      PTSUNNY   72  60  66 NE5       30.19R
$$

ANZ330-335-338-340-345-350-353-355-120000-
COASTAL MARINE OBSERVATIONS


STATION/POSITION TIME  SKY/WX   TEMP    WIND        PRES    VSBY  WAVE
                                AIR SEA DIR/SP/G                  HT/PER
                 (UTC)          (F)     (DEG/KT/KT) (MB)    (MI)  (FT/S)
NY HARB ENTRANCE NOT AVBL
4S FIRE IS       2200               70                N/A           2/ 7
23SW MTP         2300            71 68              1021.9          2/ 7
HUDSON CANYON    2300            69 71   50/  6/  8 1021.7          2/ 6
EXECUTION ROCKS  2300            76 67  190/  8/ 10   N/A
WESTERN LI SOUND 2300            77     180/  8/ 10   N/A           1
CENTRAL LI SOUND 2200            74 72  180/ 10/ 12   N/A           0
EASTERN LI SOUND 2200            74 68  160/  4/  6   N/A
ROBBINS REEF     2200            73     170/ 14/ 15   N/A
$$


>>>>>>>>>>>>>>>>>>>>>>>>>>>> KEY <<<<<<<<<<<<<<<<<<<<<<<<<<<
>                                                          <
>     SKY/WX - SKY CONDITION/PRESENT WEATHER               <
>     TMP    - TEMPERATURE IN FAHRENHEIT                   <
>     DP     - DEWPOINT IN FAHRENHEIT                      <
>     RH     - RELATIVE HUMIDITY IN PERCENT                <
>     WIND   - DIRECTION AND SPEED IN MPH                  <
>     PRES   - MEAN SEA LEVEL PRESSURE IN INCHES OF HG     <
>     WCI    - WIND CHILL INDEX                            <
>     VSB    - VISIBILITY IN MILES                         <
>     HX     - HEAT INDEX                                  <
>     TC     - TEMPERATURE IN CELSIUS                      <
>     VRB    - VARIABLE WIND DIRECTION                     <
>                                                          <
>>>>>>>>>>>>>>>>>>>>>>>>>>>> KEY <<<<<<<<<<<<<<<<<<<<<<<<<<<





USA.gov is the U.S. government's official web portal to all federal, state and local government web resources and services.